Location: Chervonnoye
(48.6000°N, 34.4000°E)
Time: 15:37:00
(UTC+00:00)

EO 1 Delta rocket - Pass Details

Date: 23 November 2020
Orbit: 698 x 1791 km, 95.4° (Epoch: 27 January)

Event Time Altitude Azimuth Distance (km) Brightness Sun altitude
Exits shadow 15:38:39 - 18° (NNE) 2,690 6.5 -16.8°
Reaches altitude 10° 15:39:32 10° 21° (NNE) 2,353 6.2 -16.9°
Maximum altitude 15:44:30 47° 96° (E) 1,163 4.5 -17.8°
Drops below altitude 10° 15:50:34 10° 170° (S) 2,873 6.9 -18.7°
Sets 15:53:31 0° 175° (S) 3,994 7.8 -19.2°
